This is the latest recevied weather packets stored in our database for station/object DJ4CK-1. If no packets are shown the sender has not sent any weather packets the latest 1 day(s).
| Time | Temp. | Humidity | Pressure | Rain* | Wind** | Luminosity | Snow |
|---|---|---|---|---|---|---|---|
| 1778084644 | 17.78° C | 56% | 1004.4 hPa | 0 mm | - | - | - |
| 1778084404 | 17.78° C | 56% | 1004.4 hPa | 0 mm | - | - | - |
| 1778084164 | 17.78° C | 56% | 1004.3 hPa | 0 mm | - | - | - |
| 1778083924 | 17.78° C | 56% | 1004.3 hPa | 0 mm | - | - | - |
| 1778083624 | 17.78° C | 56% | 1004.3 hPa | 0 mm | - | - | - |
| 1778083084 | 17.78° C | 56% | 1004.5 hPa | 0 mm | - | - | - |
| 1778082724 | 18.33° C | 55% | 1004.5 hPa | 0 mm | - | - | - |
| 1778082543 | 18.33° C | 54% | 1004.6 hPa | 0 mm | - | - | - |
| 1778082363 | 18.33° C | 54% | 1004.6 hPa | 0 mm | - | - | - |
| 1778082184 | 18.33° C | 54% | 1004.6 hPa | 0 mm | - | - | - |
| 1778082123 | 18.33° C | 54% | 1004.6 hPa | 0 mm | - | - | - |
| 1778081944 | 18.33° C | 52% | 1004.6 hPa | 0 mm | - | - | - |
| 1778081704 | 18.33° C | 47% | 1004.7 hPa | 0 mm | - | - | - |
| 1778081644 | 18.33° C | 49% | 1004.7 hPa | 0 mm | - | - | - |
| 1778081404 | 18.33° C | 47% | 1004.7 hPa | 0 mm | - | - | - |
| 1778081344 | 18.33° C | 48% | 1004.7 hPa | 0 mm | - | - | - |
| 1778081104 | 18.33° C | 48% | 1004.7 hPa | 0 mm | - | - | - |
| 1778081043 | 18.33° C | 48% | 1004.7 hPa | 0 mm | - | - | - |
| 1778080864 | 18.89° C | 49% | 1004.7 hPa | 0 mm | - | - | - |
| 1778080504 | 18.33° C | 48% | 1004.6 hPa | 0 mm | - | - | - |
| 1778080204 | 18.89° C | 49% | 1004.7 hPa | 0 mm | - | - | - |
| 1778079844 | 18.89° C | 48% | 1004.7 hPa | 0 mm | - | - | - |
| 1778079483 | 19.44° C | 47% | 1004.9 hPa | 0 mm | - | - | - |
| 1778079244 | 19.44° C | 47% | 1004.9 hPa | 0 mm | - | - | - |
| 1778078944 | 18.89° C | 48% | 1005 hPa | 0 mm | - | - | - |
* Rain latest hour (hover to see other rain measurements)
** Current wind speed in m/s (hover to see current wind gust speed)